Location: Moscow Mills
(39.6029°N, 81.6257°W)
Time: 17:20:16
(UTC+00:00)

BlueWalker 3 - Pass Details

Date: 13 October 2024
Orbit: 470 x 482 km, 53.2° (Epoch: 04 November)

Event Time Altitude Azimuth Distance (km) Brightness Sun altitude
Exits shadow 09:15:01 10° 13° (NNE) 1,615 4.8 -27.6°
Drops below altitude 10° 09:15:06 10° 14° (NNE) 1,634 4.8 -27.6°
Sets 09:18:14 0° 43° (NE) 2,513 6.3 -27.0°
